Orbital Elements at Epoch 2459200.5 (2020-Dec-17.0) TDB
Reference: JPL 12 (heliocentric ecliptic J2000)
Element | Value | Uncertainty (1-sigma) | Units |
e | .1291611550660428 | 4.2777e-08 | |
a | 2.393868974911205 | 1.8974e-08 | au |
q | 2.08467409303491 | 1.0441e-07 | au |
i | 2.619708405818112 | 7.1864e-06 | deg |
node | 4.544529029312683 | 9.6217e-05 | deg |
peri | 121.6269458193891 | 0.00010405 | deg |
M | 263.829076363742 | 4.433e-05 | deg |
tp | 2459561.901771894660 (2021-Dec-13.40177189) | 0.00017009 | TDB |
period | 1352.847960306227 3.70 | 1.6084e-05 4.404e-08 | d yr |
n | .2661052908846544 | 3.1637e-09 | deg/d |
Q | 2.7030638567875 | 2.1425e-08 | au |
|
| | Orbit Determination Parameters
Additional Information
|